This is the latest recevied weather packets stored in our database for station/object ALANSN-2. If no packets are shown the sender has not sent any weather packets the latest 10 day(s).
| Time | Temp. | Humidity | Pressure | Rain* | Wind** | Luminosity | Snow |
|---|---|---|---|---|---|---|---|
| 1778023802 | 10° C | 50% | 1013.2 hPa | 0 mm | - | 56 W/m² | - |
| 1778021102 | 10.56° C | 48% | 1013.2 hPa | 0 mm | - | 239 W/m² | - |
| 1778020502 | 10.56° C | 49% | 1013.3 hPa | 0 mm | - | 242 W/m² | - |
| 1778019902 | 10.56° C | 49% | 1013.3 hPa | 0 mm | - | 273 W/m² | - |
| 1778017202 | 10.56° C | 50% | 1013 hPa | 0 mm | - | 398 W/m² | - |
| 1778015102 | 10° C | 51% | 1013.3 hPa | 0 mm | - | 471 W/m² | - |
| 1778013302 | 10° C | 51% | 1013.1 hPa | 0 mm | - | 528 W/m² | - |
| 1778013001 | 10° C | 52% | 1012.6 hPa | 0 mm | - | 542 W/m² | - |
| 1778010002 | 10° C | 56% | 1012.8 hPa | 0 mm | - | 582 W/m² | - |
| 1778009701 | 10° C | 54% | 1012.9 hPa | 0 mm | - | 578 W/m² | - |
| 1778008802 | 9.44° C | 55% | 1013.1 hPa | 0 mm | - | 599 W/m² | - |
| 1778008502 | 9.44° C | 56% | 1013 hPa | 0 mm | - | 611 W/m² | - |
| 1778006102 | 8.33° C | 60% | 1012.5 hPa | 0 mm | - | 639 W/m² | - |
| 1778005501 | 8.89° C | 60% | 1012.6 hPa | 0 mm | - | 615 W/m² | - |
| 1778004301 | 7.78° C | 60% | 1012.3 hPa | 0 mm | - | 611 W/m² | - |
| 1778002802 | 8.33° C | 63% | 1012.3 hPa | 0 mm | - | 596 W/m² | - |
| 1778002502 | 7.78° C | 64% | 1012.2 hPa | 0 mm | - | 603 W/m² | - |
| 1778002201 | 7.78° C | 63% | 1012.1 hPa | 0 mm | - | 613 W/m² | - |
| 1778001902 | 7.78° C | 64% | 1012.1 hPa | 0 mm | - | 625 W/m² | - |
| 1778001302 | 8.33° C | 64% | 1011.9 hPa | 0 mm | - | 655 W/m² | - |
| 1778000701 | 7.78° C | 64% | 1011.9 hPa | 0 mm | - | 656 W/m² | - |
| 1777999202 | 7.22° C | 65% | 1012.1 hPa | 0 mm | - | 687 W/m² | - |
| 1777998902 | 7.22° C | 66% | 1011.9 hPa | 0 mm | - | 674 W/m² | - |
| 1777998602 | 7.78° C | 65% | 1011.9 hPa | 0 mm | - | 677 W/m² | - |
| 1777998302 | 7.78° C | 68% | 1011.9 hPa | 0 mm | - | 669 W/m² | - |
* Rain latest hour (hover to see other rain measurements)
** Current wind speed in m/s (hover to see current wind gust speed)